Weather History for KDMO - December, 2013

Change the Weather History Date:

Monday, December 9, 2013

  Actual Average Record
Temperature  
Mean Temperature 19 °F 36 °F  
Max Temperature 25 °F 45 °F 73 °F (1991)
Min Temperature 12 °F 28 °F 1 °F (2005)
Degree Days  
Heating Degree Days 46 29  
Month to date heating degree days 302 243  
Since 1 July heating degree days 1251 1088  
Cooling Degree Days 0 0  
Month to date cooling degree days 0 0  
Year to date cooling degree days 1485 1490  
Moisture  
Dew Point 12 °F    
Average Humidity 78    
Maximum Humidity 88    
Minimum Humidity 67    
Precipitation  
Precipitation T in 0.07 in 1.05 in (2003)
Month to date precipitation T 0.67  
Year to date precipitation 39.06 39.46  
Sea Level Pressure  
Sea Level Pressure 30.32 in    
Wind  
Wind Speed 8 mph (WNW)    
Max Wind Speed 15 mph    
Max Gust Speed 21 mph    
Visibility 10 miles    
Events Snow    
T = Trace of Precipitation, MM = Missing Value Source: NWS Daily Summary

Daily Weather History Graph

Daily Weather History Graph

Search for Another Location

Airport or City:

Trip Planner

Search our weather history database for the weather conditions in past years. The results will help you decide how hot, cold, wet, or windy it might be!

Date:

Astronomy

Dec. 09, 2013 Rise Set
Actual Time 7:19 AM CST 4:51 PM CST
Civil Twilight 6:49 AM CST 5:20 PM CST
Nautical Twilight 6:16 AM CST 5:54 PM CST
Astronomical Twilight 5:44 AM CST 6:26 PM CST
Moon 12:16 PM CST (12/9) No Moon Set
Length of Visible Light 10h 31m
Length of Day
9h 31m
Waxing Crescent, 51% of the Moon is Illuminated
Dec 9
Waxing Crescent
Dec 17
Full
Dec 25
Last Quarter
Jan 1
New
Jan 7
First Quarter

Hourly Weather History & Observations

Time (CST) Temp. Windchill Dew Point Humidity Pressure Visibility Wind Dir Wind Speed Gust Speed Precip Events Conditions
12:36 AM 24.1 °F 13.1 °F 19.9 °F 84% 30.15 in 9.0 mi WNW 11.5 mph 18.4 mph N/A   Overcast
12:48 AM 24.8 °F 14.6 °F 19.4 °F 80% 30.15 in 10.0 mi WNW 10.4 mph - N/A   Overcast
12:53 AM 24.1 °F 13.7 °F 19.0 °F 81% 30.19 in 10.0 mi NW 10.4 mph - N/A   Overcast
1:53 AM 23.0 °F 11.1 °F 18.0 °F 81% 30.21 in 9.0 mi WNW 12.7 mph - 0.00 in Snow Light Snow
2:53 AM 21.0 °F 9.9 °F 16.0 °F 81% 30.23 in 10.0 mi NW 10.4 mph - 0.00 in   Overcast
3:11 AM 19.9 °F 10.1 °F 14.0 °F 78% 30.20 in 10.0 mi WNW 8.1 mph - N/A   Scattered Clouds
3:53 AM 18.0 °F 5.4 °F 12.9 °F 81% 30.26 in 10.0 mi NW 11.5 mph - N/A   Partly Cloudy
4:53 AM 17.1 °F 5.8 °F 12.9 °F 84% 30.27 in 10.0 mi WNW 9.2 mph - N/A   Clear
5:53 AM 14.0 °F 3.9 °F 10.9 °F 88% 30.28 in 10.0 mi WNW 6.9 mph - N/A   Clear
6:53 AM 14.0 °F 3.9 °F 10.0 °F 84% 30.28 in 10.0 mi WNW 6.9 mph - N/A   Clear
7:53 AM 15.1 °F 6.4 °F 10.9 °F 84% 30.32 in 9.0 mi West 5.8 mph - N/A   Clear
8:53 AM 18.0 °F 7.7 °F 12.0 °F 78% 30.37 in 9.0 mi West 8.1 mph - N/A   Partly Cloudy
9:53 AM 19.9 °F 10.1 °F 14.0 °F 78% 30.40 in 10.0 mi WNW 8.1 mph - N/A   Clear
10:53 AM 19.9 °F 9.3 °F 12.9 °F 74% 30.41 in 10.0 mi WNW 9.2 mph - N/A   Partly Cloudy
11:15 AM 19.9 °F 11.1 °F 12.9 °F 74% 30.37 in 10.0 mi West 6.9 mph - N/A   Mostly Cloudy
11:31 AM 19.9 °F 7.9 °F 10.9 °F 68% 30.37 in 10.0 mi WNW 11.5 mph - 0.00 in Snow Light Snow
11:53 AM 19.9 °F 9.3 °F 12.9 °F 74% 30.38 in 9.0 mi NW 9.2 mph - 0.00 in Snow Light Snow
12:02 PM 19.9 °F 7.9 °F 12.9 °F 74% 30.34 in 9.0 mi NW 11.5 mph - 0.00 in Snow Light Snow
12:33 PM 21.0 °F 9.9 °F 12.9 °F 71% 30.33 in 9.0 mi WNW 10.4 mph - 0.00 in Snow Light Snow
12:53 PM 19.9 °F 7.3 °F 12.9 °F 74% 30.37 in 9.0 mi NNW 12.7 mph - 0.00 in Snow Light Snow
1:53 PM 19.9 °F 7.3 °F 12.0 °F 71% 30.36 in 9.0 mi NW 12.7 mph - 0.00 in Snow Light Snow
2:11 PM 19.9 °F 8.6 °F 10.9 °F 68% 30.32 in 9.0 mi NW 10.4 mph - 0.00 in Snow Light Snow
2:53 PM 18.0 °F 5.4 °F 10.0 °F 71% 30.35 in 9.0 mi NW 11.5 mph - 0.00 in Snow Light Snow
3:53 PM 17.1 °F 6.6 °F 7.0 °F 65% 30.35 in 10.0 mi NW 8.1 mph - 0.00 in   Overcast
4:53 PM 16.0 °F 8.8 °F 8.1 °F 71% 30.35 in 10.0 mi NW 4.6 mph - N/A   Overcast
5:53 PM 16.0 °F 8.8 °F 7.0 °F 68% 30.37 in 10.0 mi NNW 4.6 mph - N/A   Overcast
6:53 PM 16.0 °F 8.8 °F 6.1 °F 65% 30.36 in 10.0 mi NW 4.6 mph - N/A   Overcast
7:53 PM 15.1 °F 9.4 °F 6.1 °F 68% 30.36 in 10.0 mi WNW 3.5 mph - N/A   Partly Cloudy
8:53 PM 15.1 °F 9.4 °F 7.0 °F 70% 30.35 in 10.0 mi West 3.5 mph - N/A   Mostly Cloudy
9:53 PM 15.1 °F 7.7 °F 6.1 °F 68% 30.35 in 10.0 mi WSW 4.6 mph - N/A   Partly Cloudy
10:53 PM 14.0 °F 5.1 °F 6.1 °F 71% 30.35 in 10.0 mi SW 5.8 mph - N/A   Clear
11:53 PM 12.9 °F 1.6 °F 5.0 °F 71% 30.36 in 10.0 mi West 8.1 mph - N/A   Clear